Hourly Data Report for June 08, 2020

TRENTON A
ONTARIO
Current Station Operator: DND

44°07'08.000" N
77°31'41.000" W
86.30 m
6158875
71621
YTR

Download Data

Hourly Data (June 2020)
Hourly Data Report for June 8, 2020
TIME
LST
Temp Definition
°C
Dew Point Definition
°C
Rel Hum Definition
%
Precip. Amount Definition
mm

Wind Dir Definition
10's deg

Wind Spd Definition
km/h
Visibility Definition
km
Stn Press Definition
kPa
Hmdx Definition


Wind Chill Definition


Weather Definition


00:00 12.5 9.2 80   32 5 24.1 100.76     Mainly Clear
01:00 12.2 9.0 81   33 17 24.1 100.75     Mainly Clear
02:00 11.5 8.5 82   34 13 24.1 100.79     Mainly Clear
03:00 10.2 8.2 87   3 4 24.1 100.77     Clear
04:00 10.3 7.6 83   34 9 24.1 100.82     Mainly Clear
05:00 10.3 7.1 81   1 4 24.1 100.88     Clear
06:00 11.9 8.2 78   36 4 24.1 100.89     Clear
07:00 14.7 7.7 63   6 11 24.1 100.94     Clear
08:00 16.7 7.4 54   4 11 24.1 100.95     Mainly Clear
09:00 17.7 4.6 42   36 5 24.1 100.91     Mainly Clear
10:00 19.3 4.7 38   5 4 24.1 100.93     Mainly Clear
11:00 19.8 4.6 37   20 9 24.1 100.87     Mostly Cloudy
12:00 19.1 7.3 46   22 18 24.1 100.86     Mostly Cloudy
13:00 18.7 5.8 43   21 22 24.1 100.83     Mostly Cloudy
14:00 18.6 4.4 39   21 18 24.1 100.78     Mostly Cloudy
15:00 19.4 5.2 39   20 18 24.1 100.70     Mostly Cloudy
16:00 19.5 4.8 38   20 18 24.1 100.64     Mostly Cloudy
17:00 18.8 5.3 41   20 18 24.1 100.61     Mostly Cloudy
18:00 18.2 6.6 47   22 13 24.1 100.59     Mostly Cloudy
19:00 17.4 6.6 49   21 13 24.1 100.51     Mainly Clear
20:00 16.3 6.9 54   20 9 24.1 100.46     Mainly Clear
21:00 16.0 6.9 55   23 8 24.1 100.49     Mainly Clear
22:00 16.0 8.3 60   21 9 24.1 100.44     Mainly Clear
23:00 15.2 8.8 66   20 4 24.1 100.43     Mainly Clear

Notes on Data Quality.

Legend

  • E = Estimated
  • M = Missing
  • NA = Not Available*
  • [empty] = Indicates an unobserved value
Date modified: